Weather in Startsevo

Russia / Oryol Oblast     53°00′11″N   36°09′26″E
temp.,
°C
wind,
m/s
gust,
m/s
humid.,
%
clouds,
%
prec.,
mm/h
press.,
hPa
HPBL,
m
20 may, fri
fri2000:00+7nnw358552 0.0 101689
03:00+7nnw2387100 0.1 101571
06:00+8nne2792100 0.3 1017280
09:00+11nne46720 0.3 1017896
12:00+13n4554100 0.0 10181605
15:00+14n3450100 0.0 10171843
18:00+12ene3469100 0.0 1016331
21:00+9ese3469100 0.0 101685
21 may, sat
sat2100:00+8se4870100 0.0 1015218
03:00+8se41072100 0.0 1014346
06:00+7se5983100 0.2 1012386
09:00+7ese61189100 1.1 1011626
12:00+8ese6990100 1.3 1010930
15:00+8se5887100 1.3 1009791
18:00+7se5988100 0.0 1008518
21:00+6ese4989100 0.0 1007405
22 may, sun
sun2200:00+6ese4990100 0.1 1005427
03:00+6e4995100 1.8 1003418
06:00+5e71193100 4.0 1002602
09:00+5e71295100 9.8 1002759
12:00+7e51090100 1.9 1003858
15:00+8ene2591100 2.4 1004519
18:00+9ne2686100 0.4 1004443
21:00+6nne338678 0.8 100537
23 may, mon
mon2300:00+4nne35885 0.0 100769
03:00+2n34875 0.0 100759
06:00+3n37875 0.0 1009155
09:00+8n58610 0.0 1009942
12:00+11n564883 0.0 10092145
15:00+13n4745100 0.0 10082292
18:00+13nnw3558100 0.0 10081331
21:00+7nnw346910 0.0 101056
24 may, tue
tue2400:00+4nnw34725 0.0 101155
03:00+3nw357398 0.0 101282
06:00+4nw3874100 0.0 1013187
09:00+9nnw5960100 0.0 1013482
12:00+12nw6956100 0.0 10131256
15:00+14nnw51167100 0.0 10131782
18:00+14nnw5107060 0.2 1013833
21:00+9nw3385100 0.4 101631